Year,Month,Day,Hour,Minute,Value (Times are PST for insolation in W/m^2)
2012,06,21,00,00,0.00
2012,06,21,00,01,0.00
2012,06,21,00,02,0.00
2012,06,21,00,03,0.00
2012,06,21,00,04,0.00
2012,06,21,00,05,0.00
2012,06,21,00,06,0.00
2012,06,21,00,07,0.00
2012,06,21,00,08,0.00
2012,06,21,00,09,0.00
2012,06,21,00,10,0.00
2012,06,21,00,11,0.00
2012,06,21,00,12,0.00
2012,06,21,00,13,0.00
2012,06,21,00,14,0.00
2012,06,21,00,15,0.00
2012,06,21,00,16,0.00
2012,06,21,00,17,0.00
2012,06,21,00,18,0.00
2012,06,21,00,19,0.00
2012,06,21,00,20,0.00
2012,06,21,00,21,0.00
2012,06,21,00,22,0.00
2012,06,21,00,23,0.00
2012,06,21,00,24,0.00
2012,06,21,00,25,0.00
2012,06,21,00,26,0.00
2012,06,21,00,27,0.00
2012,06,21,00,28,0.00
2012,06,21,00,29,0.00
2012,06,21,00,30,0.00
2012,06,21,00,31,0.00
2012,06,21,00,32,0.00
2012,06,21,00,33,0.00
2012,06,21,00,34,0.00
2012,06,21,00,35,0.00
2012,06,21,00,36,0.00
2012,06,21,00,37,0.00
2012,06,21,00,38,0.00
2012,06,21,00,39,0.00
2012,06,21,00,40,0.00
2012,06,21,00,41,0.00
2012,06,21,00,42,0.00
2012,06,21,00,43,0.00
2012,06,21,00,44,0.00
2012,06,21,00,45,0.00
2012,06,21,00,46,0.00
2012,06,21,00,47,0.00
2012,06,21,00,48,0.00
2012,06,21,00,49,0.00
2012,06,21,00,50,0.00
2012,06,21,00,51,0.00
2012,06,21,00,52,0.00
2012,06,21,00,53,0.00
2012,06,21,00,54,0.00
2012,06,21,00,55,0.00
2012,06,21,00,56,0.00
2012,06,21,00,57,0.00
2012,06,21,00,58,0.00
2012,06,21,00,59,0.00
2012,06,21,01,00,0.00
2012,06,21,01,01,0.00
2012,06,21,01,02,0.00
2012,06,21,01,03,0.00
2012,06,21,01,04,0.00
2012,06,21,01,05,0.00
2012,06,21,01,06,0.00
2012,06,21,01,07,0.00
2012,06,21,01,08,0.00
2012,06,21,01,09,0.00
2012,06,21,01,10,0.00
2012,06,21,01,11,0.00
2012,06,21,01,12,0.00
2012,06,21,01,13,0.00
2012,06,21,01,14,0.00
2012,06,21,01,15,0.00
2012,06,21,01,16,0.00
2012,06,21,01,17,0.00
2012,06,21,01,18,0.00
2012,06,21,01,19,0.00
2012,06,21,01,20,0.00
2012,06,21,01,21,0.00
2012,06,21,01,22,0.00
2012,06,21,01,23,0.00
2012,06,21,01,24,0.00
2012,06,21,01,25,0.00
2012,06,21,01,26,0.00
2012,06,21,01,27,0.00
2012,06,21,01,28,0.00
2012,06,21,01,29,0.00
2012,06,21,01,30,0.00
2012,06,21,01,31,0.00
2012,06,21,01,32,0.00
2012,06,21,01,33,0.00
2012,06,21,01,34,0.00
2012,06,21,01,35,0.00
2012,06,21,01,36,0.00
2012,06,21,01,37,0.00
2012,06,21,01,38,0.00
2012,06,21,01,39,0.00
2012,06,21,01,40,0.00
2012,06,21,01,41,0.00
2012,06,21,01,42,0.00
2012,06,21,01,43,0.00
2012,06,21,01,44,0.00
2012,06,21,01,45,0.00
2012,06,21,01,46,0.00
2012,06,21,01,47,0.00
2012,06,21,01,48,0.00
2012,06,21,01,49,0.00
2012,06,21,01,50,0.00
2012,06,21,01,51,0.00
2012,06,21,01,52,0.00
2012,06,21,01,53,0.00
2012,06,21,01,54,0.00
2012,06,21,01,55,0.00
2012,06,21,01,56,0.00
2012,06,21,01,57,0.00
2012,06,21,01,58,0.00
2012,06,21,01,59,0.00
2012,06,21,02,00,0.00
2012,06,21,02,01,0.00
2012,06,21,02,02,0.00
2012,06,21,02,03,0.00
2012,06,21,02,04,0.00
2012,06,21,02,05,0.00
2012,06,21,02,06,0.00
2012,06,21,02,07,0.00
2012,06,21,02,08,0.00
2012,06,21,02,09,0.00
2012,06,21,02,10,0.00
2012,06,21,02,11,0.00
2012,06,21,02,12,0.00
2012,06,21,02,13,0.00
2012,06,21,02,14,0.00
2012,06,21,02,15,0.00
2012,06,21,02,16,0.00
2012,06,21,02,17,0.00
2012,06,21,02,18,0.00
2012,06,21,02,19,0.00
2012,06,21,02,20,0.00
2012,06,21,02,21,0.00
2012,06,21,02,22,0.00
2012,06,21,02,23,0.00
2012,06,21,02,24,0.00
2012,06,21,02,25,0.00
2012,06,21,02,26,0.00
2012,06,21,02,27,0.00
2012,06,21,02,28,0.00
2012,06,21,02,29,0.00
2012,06,21,02,30,0.00
2012,06,21,02,31,0.00
2012,06,21,02,32,0.00
2012,06,21,02,33,0.00
2012,06,21,02,34,0.00
2012,06,21,02,35,0.00
2012,06,21,02,36,0.00
2012,06,21,02,37,0.00
2012,06,21,02,38,0.00
2012,06,21,02,39,0.00
2012,06,21,02,40,0.00
2012,06,21,02,41,0.00
2012,06,21,02,42,0.00
2012,06,21,02,43,0.00
2012,06,21,02,44,0.00
2012,06,21,02,45,0.00
2012,06,21,02,46,0.00
2012,06,21,02,47,0.00
2012,06,21,02,48,0.00
2012,06,21,02,49,0.00
2012,06,21,02,50,0.00
2012,06,21,02,51,0.00
2012,06,21,02,52,0.00
2012,06,21,02,53,0.00
2012,06,21,02,54,0.00
2012,06,21,02,55,0.00
2012,06,21,02,56,0.00
2012,06,21,02,57,0.00
2012,06,21,02,58,0.00
2012,06,21,02,59,0.00
2012,06,21,03,00,0.00
2012,06,21,03,01,0.00
2012,06,21,03,02,0.00
2012,06,21,03,03,0.00
2012,06,21,03,04,0.00
2012,06,21,03,05,0.00
2012,06,21,03,06,0.00
2012,06,21,03,07,0.00
2012,06,21,03,08,0.00
2012,06,21,03,09,0.00
2012,06,21,03,10,0.00
2012,06,21,03,11,0.00
2012,06,21,03,12,0.00
2012,06,21,03,13,0.00
2012,06,21,03,14,0.00
2012,06,21,03,15,0.00
2012,06,21,03,16,0.00
2012,06,21,03,17,0.00
2012,06,21,03,18,0.00
2012,06,21,03,19,0.00
2012,06,21,03,20,0.00
2012,06,21,03,21,0.00
2012,06,21,03,22,0.00
2012,06,21,03,23,0.00
2012,06,21,03,24,0.00
2012,06,21,03,25,0.00
2012,06,21,03,26,0.00
2012,06,21,03,27,0.00
2012,06,21,03,28,0.00
2012,06,21,03,29,0.00
2012,06,21,03,30,0.00
2012,06,21,03,31,0.00
2012,06,21,03,32,0.00
2012,06,21,03,33,0.00
2012,06,21,03,34,0.00
2012,06,21,03,35,0.00
2012,06,21,03,36,0.00
2012,06,21,03,37,0.00
2012,06,21,03,38,0.00
2012,06,21,03,39,0.00
2012,06,21,03,40,0.00
2012,06,21,03,41,0.00
2012,06,21,03,42,0.00
2012,06,21,03,43,0.00
2012,06,21,03,44,0.00
2012,06,21,03,45,0.00
2012,06,21,03,46,0.00
2012,06,21,03,47,0.00
2012,06,21,03,48,0.00
2012,06,21,03,49,0.00
2012,06,21,03,50,0.00
2012,06,21,03,51,0.00
2012,06,21,03,52,0.00
2012,06,21,03,53,0.00
2012,06,21,03,54,0.00
2012,06,21,03,55,0.00
2012,06,21,03,56,0.00
2012,06,21,03,57,0.00
2012,06,21,03,58,0.00
2012,06,21,03,59,0.00
2012,06,21,04,00,0.00
2012,06,21,04,01,0.00
2012,06,21,04,02,0.00
2012,06,21,04,03,0.00
2012,06,21,04,04,0.00
2012,06,21,04,05,0.00
2012,06,21,04,06,0.00
2012,06,21,04,07,0.00
2012,06,21,04,08,0.00
2012,06,21,04,09,0.00
2012,06,21,04,10,0.00
2012,06,21,04,11,0.00
2012,06,21,04,12,0.00
2012,06,21,04,13,0.00
2012,06,21,04,14,0.00
2012,06,21,04,15,0.00
2012,06,21,04,16,0.00
2012,06,21,04,17,0.00
2012,06,21,04,18,0.00
2012,06,21,04,19,0.00
2012,06,21,04,20,0.00
2012,06,21,04,21,0.00
2012,06,21,04,22,0.00
2012,06,21,04,23,0.00
2012,06,21,04,24,0.00
2012,06,21,04,25,0.00
2012,06,21,04,26,0.00
2012,06,21,04,27,0.00
2012,06,21,04,28,0.00
2012,06,21,04,29,0.00
2012,06,21,04,30,0.00
2012,06,21,04,31,0.00
2012,06,21,04,32,0.00
2012,06,21,04,33,0.00
2012,06,21,04,34,0.00
2012,06,21,04,35,0.00
2012,06,21,04,36,0.00
2012,06,21,04,37,0.00
2012,06,21,04,38,0.00
2012,06,21,04,39,0.00
2012,06,21,04,40,0.00
2012,06,21,04,41,0.00
2012,06,21,04,42,0.00
2012,06,21,04,43,0.00
2012,06,21,04,44,0.00
2012,06,21,04,45,0.00
2012,06,21,04,46,0.00
2012,06,21,04,47,0.00
2012,06,21,04,48,0.00
2012,06,21,04,49,0.00
2012,06,21,04,50,0.00
2012,06,21,04,51,0.00
2012,06,21,04,52,0.00
2012,06,21,04,53,0.00
2012,06,21,04,54,0.00
2012,06,21,04,55,0.00
2012,06,21,04,56,0.00
2012,06,21,04,57,0.00
2012,06,21,04,58,0.00
2012,06,21,04,59,0.00
2012,06,21,05,00,0.00
2012,06,21,05,01,0.00
2012,06,21,05,02,0.00
2012,06,21,05,03,0.00
2012,06,21,05,04,0.00
2012,06,21,05,05,0.00
2012,06,21,05,06,0.00
2012,06,21,05,07,0.00
2012,06,21,05,08,0.00
2012,06,21,05,09,3.20
2012,06,21,05,10,5.00
2012,06,21,05,11,5.00
2012,06,21,05,12,5.00
2012,06,21,05,13,5.00
2012,06,21,05,14,5.00
2012,06,21,05,15,6.40
2012,06,21,05,16,7.00
2012,06,21,05,17,7.00
2012,06,21,05,18,7.00
2012,06,21,05,19,7.00
2012,06,21,05,20,8.20
2012,06,21,05,21,9.00
2012,06,21,05,22,9.00
2012,06,21,05,23,9.30
2012,06,21,05,24,11.00
2012,06,21,05,25,11.00
2012,06,21,05,26,11.60
2012,06,21,05,27,12.00
2012,06,21,05,28,12.00
2012,06,21,05,29,12.30
2012,06,21,05,30,14.00
2012,06,21,05,31,14.00
2012,06,21,05,32,14.00
2012,06,21,05,33,15.50
2012,06,21,05,34,16.00
2012,06,21,05,35,16.40
2012,06,21,05,36,18.00
2012,06,21,05,37,18.50
2012,06,21,05,38,19.00
2012,06,21,05,39,19.00
2012,06,21,05,40,20.90
2012,06,21,05,41,22.00
2012,06,21,05,42,25.00
2012,06,21,05,43,25.00
2012,06,21,05,44,25.60
2012,06,21,05,45,26.00
2012,06,21,05,46,28.10
2012,06,21,05,47,30.50
2012,06,21,05,48,32.00
2012,06,21,05,49,32.50
2012,06,21,05,50,37.20
2012,06,21,05,51,43.20
2012,06,21,05,52,47.20
2012,06,21,05,53,48.40
2012,06,21,05,54,44.90
2012,06,21,05,55,41.00
2012,06,21,05,56,40.00
2012,06,21,05,57,37.50
2012,06,21,05,58,45.30
2012,06,21,05,59,54.50
2012,06,21,06,00,47.80
2012,06,21,06,01,44.00
2012,06,21,06,02,41.20
2012,06,21,06,03,39.10
2012,06,21,06,04,40.30
2012,06,21,06,05,42.00
2012,06,21,06,06,42.00
2012,06,21,06,07,46.20
2012,06,21,06,08,59.30
2012,06,21,06,09,66.60
2012,06,21,06,10,66.00
2012,06,21,06,11,58.50
2012,06,21,06,12,52.30
2012,06,21,06,13,55.30
2012,06,21,06,14,54.50
2012,06,21,06,15,59.50
2012,06,21,06,16,62.20
2012,06,21,06,17,61.20
2012,06,21,06,18,57.10
2012,06,21,06,19,56.00
2012,06,21,06,20,64.70
2012,06,21,06,21,56.90
2012,06,21,06,22,55.30
2012,06,21,06,23,61.80
2012,06,21,06,24,68.70
2012,06,21,06,25,70.70
2012,06,21,06,26,69.20
2012,06,21,06,27,75.70
2012,06,21,06,28,78.00
2012,06,21,06,29,86.40
2012,06,21,06,30,95.50
2012,06,21,06,31,106.20
2012,06,21,06,32,113.00
2012,06,21,06,33,119.60
2012,06,21,06,34,116.00
2012,06,21,06,35,116.00
2012,06,21,06,36,118.30
2012,06,21,06,37,120.00
2012,06,21,06,38,116.60
2012,06,21,06,39,114.70
2012,06,21,06,40,106.20
2012,06,21,06,41,104.00
2012,06,21,06,42,105.70
2012,06,21,06,43,111.30
2012,06,21,06,44,113.90
2012,06,21,06,45,119.70
2012,06,21,06,46,117.40
2012,06,21,06,47,116.00
2012,06,21,06,48,111.90
2012,06,21,06,49,112.00
2012,06,21,06,50,113.00
2012,06,21,06,51,114.60
2012,06,21,06,52,107.60
2012,06,21,06,53,107.80
2012,06,21,06,54,112.80
2012,06,21,06,55,115.60
2012,06,21,06,56,119.70
2012,06,21,06,57,118.60
2012,06,21,06,58,121.00
2012,06,21,06,59,126.50
2012,06,21,07,00,136.40
2012,06,21,07,01,143.00
2012,06,21,07,02,148.80
2012,06,21,07,03,151.50
2012,06,21,07,04,154.20
2012,06,21,07,05,157.10
2012,06,21,07,06,159.30
2012,06,21,07,07,160.00
2012,06,21,07,08,162.00
2012,06,21,07,09,162.80
2012,06,21,07,10,162.00
2012,06,21,07,11,160.90
2012,06,21,07,12,162.10
2012,06,21,07,13,164.60
2012,06,21,07,14,171.30
2012,06,21,07,15,174.00
2012,06,21,07,16,174.80
2012,06,21,07,17,179.90
2012,06,21,07,18,180.20
2012,06,21,07,19,176.50
2012,06,21,07,20,175.10
2012,06,21,07,21,185.20
2012,06,21,07,22,195.00
2012,06,21,07,23,193.40
2012,06,21,07,24,189.20
2012,06,21,07,25,192.50
2012,06,21,07,26,197.90
2012,06,21,07,27,190.20
2012,06,21,07,28,188.80
2012,06,21,07,29,190.80
2012,06,21,07,30,191.50
2012,06,21,07,31,192.90
2012,06,21,07,32,192.50
2012,06,21,07,33,195.60
2012,06,21,07,34,198.40
2012,06,21,07,35,202.50
2012,06,21,07,36,204.00
2012,06,21,07,37,205.70
2012,06,21,07,38,203.20
2012,06,21,07,39,200.70
2012,06,21,07,40,202.00
2012,06,21,07,41,203.30
2012,06,21,07,42,202.40
2012,06,21,07,43,204.10
2012,06,21,07,44,206.60
2012,06,21,07,45,209.80
2012,06,21,07,46,211.00
2012,06,21,07,47,212.30
2012,06,21,07,48,217.20
2012,06,21,07,49,213.60
2012,06,21,07,50,216.00
2012,06,21,07,51,215.20
2012,06,21,07,52,214.00
2012,06,21,07,53,213.30
2012,06,21,07,54,213.00
2012,06,21,07,55,213.60
2012,06,21,07,56,210.50
2012,06,21,07,57,209.00
2012,06,21,07,58,207.30
2012,06,21,07,59,206.70
2012,06,21,08,00,210.40
2012,06,21,08,01,211.00
2012,06,21,08,02,212.50
2012,06,21,08,03,216.80
2012,06,21,08,04,213.80
2012,06,21,08,05,209.60
2012,06,21,08,06,212.40
2012,06,21,08,07,222.10
2012,06,21,08,08,236.10
2012,06,21,08,09,248.20
2012,06,21,08,10,261.20
2012,06,21,08,11,272.80
2012,06,21,08,12,278.00
2012,06,21,08,13,281.30
2012,06,21,08,14,288.10
2012,06,21,08,15,299.00
2012,06,21,08,16,309.20
2012,06,21,08,17,332.50
2012,06,21,08,18,348.70
2012,06,21,08,19,364.20
2012,06,21,08,20,373.00
2012,06,21,08,21,376.30
2012,06,21,08,22,380.60
2012,06,21,08,23,378.60
2012,06,21,08,24,375.80
2012,06,21,08,25,367.40
2012,06,21,08,26,377.80
2012,06,21,08,27,397.50
2012,06,21,08,28,398.50
2012,06,21,08,29,407.50
2012,06,21,08,30,414.80
2012,06,21,08,31,415.00
2012,06,21,08,32,414.30
2012,06,21,08,33,408.50
2012,06,21,08,34,398.40
2012,06,21,08,35,396.00
2012,06,21,08,36,400.50
2012,06,21,08,37,415.00
2012,06,21,08,38,422.70
2012,06,21,08,39,433.20
2012,06,21,08,40,431.00
2012,06,21,08,41,422.20
2012,06,21,08,42,398.50
2012,06,21,08,43,390.00
2012,06,21,08,44,372.10
2012,06,21,08,45,361.80
2012,06,21,08,46,357.90
2012,06,21,08,47,351.40
2012,06,21,08,48,356.90
2012,06,21,08,49,360.50
2012,06,21,08,50,365.30
2012,06,21,08,51,369.20
2012,06,21,08,52,379.80
2012,06,21,08,53,394.00
2012,06,21,08,54,404.60
2012,06,21,08,55,409.60
2012,06,21,08,56,413.00
2012,06,21,08,57,418.20
2012,06,21,08,58,420.50
2012,06,21,08,59,426.30
2012,06,21,09,00,442.80
2012,06,21,09,01,435.40
2012,06,21,09,02,437.10
2012,06,21,09,03,434.80
2012,06,21,09,04,426.90
2012,06,21,09,05,417.40
2012,06,21,09,06,406.90
2012,06,21,09,07,401.60
2012,06,21,09,08,395.70
2012,06,21,09,09,384.20
2012,06,21,09,10,380.00
2012,06,21,09,11,373.50
2012,06,21,09,12,371.00
2012,06,21,09,13,369.60
2012,06,21,09,14,368.10
2012,06,21,09,15,367.70
2012,06,21,09,16,364.60
2012,06,21,09,17,366.30
2012,06,21,09,18,374.60
2012,06,21,09,19,380.60
2012,06,21,09,20,381.60
2012,06,21,09,21,381.70
2012,06,21,09,22,389.80
2012,06,21,09,23,344.40
2012,06,21,09,24,375.60
2012,06,21,09,25,385.80
2012,06,21,09,26,388.40
2012,06,21,09,27,382.80
2012,06,21,09,28,384.40
2012,06,21,09,29,393.40
2012,06,21,09,30,403.40
2012,06,21,09,31,412.20
2012,06,21,09,32,415.00
2012,06,21,09,33,416.40
2012,06,21,09,34,411.60
2012,06,21,09,35,416.50
2012,06,21,09,36,425.60
2012,06,21,09,37,427.90
2012,06,21,09,38,431.90
2012,06,21,09,39,435.40
2012,06,21,09,40,431.90
2012,06,21,09,41,436.60
2012,06,21,09,42,422.60
2012,06,21,09,43,415.30
2012,06,21,09,44,410.00
2012,06,21,09,45,408.40
2012,06,21,09,46,414.50
2012,06,21,09,47,420.80
2012,06,21,09,48,423.30
2012,06,21,09,49,422.00
2012,06,21,09,50,415.10
2012,06,21,09,51,414.20
2012,06,21,09,52,418.70
2012,06,21,09,53,391.80
2012,06,21,09,54,376.00
2012,06,21,09,55,382.30
2012,06,21,09,56,389.30
2012,06,21,09,57,384.50
2012,06,21,09,58,383.00
2012,06,21,09,59,382.60
2012,06,21,10,00,376.40
2012,06,21,10,01,356.40
2012,06,21,10,02,348.50
2012,06,21,10,03,355.90
2012,06,21,10,04,368.10
2012,06,21,10,05,410.60
2012,06,21,10,06,464.60
2012,06,21,10,07,464.40
2012,06,21,10,08,476.80
2012,06,21,10,09,489.90
2012,06,21,10,10,488.90
2012,06,21,10,11,470.20
2012,06,21,10,12,474.30
2012,06,21,10,13,480.80
2012,06,21,10,14,491.90
2012,06,21,10,15,500.60
2012,06,21,10,16,520.00
2012,06,21,10,17,520.20
2012,06,21,10,18,520.50
2012,06,21,10,19,541.20
2012,06,21,10,20,563.00
2012,06,21,10,21,551.80
2012,06,21,10,22,548.10
2012,06,21,10,23,534.40
2012,06,21,10,24,520.20
2012,06,21,10,25,513.00
2012,06,21,10,26,509.10
2012,06,21,10,27,506.10
2012,06,21,10,28,502.60
2012,06,21,10,29,496.00
2012,06,21,10,30,492.10
2012,06,21,10,31,485.50
2012,06,21,10,32,494.10
2012,06,21,10,33,491.80
2012,06,21,10,34,486.10
2012,06,21,10,35,485.10
2012,06,21,10,36,464.90
2012,06,21,10,37,453.00
2012,06,21,10,38,456.00
2012,06,21,10,39,442.80
2012,06,21,10,40,432.90
2012,06,21,10,41,429.00
2012,06,21,10,42,430.60
2012,06,21,10,43,432.00
2012,06,21,10,44,443.90
2012,06,21,10,45,485.10
2012,06,21,10,46,507.00
2012,06,21,10,47,525.30
2012,06,21,10,48,545.50
2012,06,21,10,49,552.90
2012,06,21,10,50,534.20
2012,06,21,10,51,536.90
2012,06,21,10,52,554.90
2012,06,21,10,53,586.10
2012,06,21,10,54,589.40
2012,06,21,10,55,618.90
2012,06,21,10,56,648.70
2012,06,21,10,57,611.90
2012,06,21,10,58,586.20
2012,06,21,10,59,602.50
2012,06,21,11,00,613.20
2012,06,21,11,01,550.20
2012,06,21,11,02,570.40
2012,06,21,11,03,564.20
2012,06,21,11,04,588.50
2012,06,21,11,05,620.10
2012,06,21,11,06,629.20
2012,06,21,11,07,640.80
2012,06,21,11,08,663.40
2012,06,21,11,09,640.00
2012,06,21,11,10,653.70
2012,06,21,11,11,663.80
2012,06,21,11,12,691.20
2012,06,21,11,13,732.60
2012,06,21,11,14,768.90
2012,06,21,11,15,784.60
2012,06,21,11,16,796.20
2012,06,21,11,17,792.70
2012,06,21,11,18,803.60
2012,06,21,11,19,778.30
2012,06,21,11,20,772.70
2012,06,21,11,21,793.50
2012,06,21,11,22,838.10
2012,06,21,11,23,861.50
2012,06,21,11,24,855.10
2012,06,21,11,25,840.80
2012,06,21,11,26,840.00
2012,06,21,11,27,831.80
2012,06,21,11,28,805.40
2012,06,21,11,29,807.70
2012,06,21,11,30,831.60
2012,06,21,11,31,845.10
2012,06,21,11,32,761.80
2012,06,21,11,33,784.20
2012,06,21,11,34,780.80
2012,06,21,11,35,800.70
2012,06,21,11,36,826.30
2012,06,21,11,37,830.00
2012,06,21,11,38,827.80
2012,06,21,11,39,808.50
2012,06,21,11,40,792.80
2012,06,21,11,41,762.80
2012,06,21,11,42,751.50
2012,06,21,11,43,752.30
2012,06,21,11,44,679.60
2012,06,21,11,45,631.30
2012,06,21,11,46,647.00
2012,06,21,11,47,639.30
2012,06,21,11,48,576.00
2012,06,21,11,49,595.30
2012,06,21,11,50,608.00
2012,06,21,11,51,576.70
2012,06,21,11,52,558.00
2012,06,21,11,53,539.30
2012,06,21,11,54,509.60
2012,06,21,11,55,444.30
2012,06,21,11,56,448.40
2012,06,21,11,57,465.20
2012,06,21,11,58,453.90
2012,06,21,11,59,477.90
2012,06,21,12,00,522.40
2012,06,21,12,01,513.70
2012,06,21,12,02,461.00
2012,06,21,12,03,473.20
2012,06,21,12,04,494.00
2012,06,21,12,05,476.90
2012,06,21,12,06,483.40
2012,06,21,12,07,499.00
2012,06,21,12,08,477.50
2012,06,21,12,09,483.20
2012,06,21,12,10,506.80
2012,06,21,12,11,500.20
2012,06,21,12,12,496.50
2012,06,21,12,13,492.20
2012,06,21,12,14,475.20
2012,06,21,12,15,484.90
2012,06,21,12,16,477.90
2012,06,21,12,17,482.00
2012,06,21,12,18,480.50
2012,06,21,12,19,475.10
2012,06,21,12,20,477.90
2012,06,21,12,21,480.20
2012,06,21,12,22,484.90
2012,06,21,12,23,492.80
2012,06,21,12,24,502.50
2012,06,21,12,25,511.90
2012,06,21,12,26,522.00
2012,06,21,12,27,532.90
2012,06,21,12,28,548.00
2012,06,21,12,29,527.60
2012,06,21,12,30,558.70
2012,06,21,12,31,559.20
2012,06,21,12,32,570.50
2012,06,21,12,33,576.00
2012,06,21,12,34,564.40
2012,06,21,12,35,544.20
2012,06,21,12,36,542.20
2012,06,21,12,37,534.00
2012,06,21,12,38,510.20
2012,06,21,12,39,498.50
2012,06,21,12,40,523.50
2012,06,21,12,41,535.40
2012,06,21,12,42,536.70
2012,06,21,12,43,545.90
2012,06,21,12,44,559.60
2012,06,21,12,45,576.40
2012,06,21,12,46,579.80
2012,06,21,12,47,587.30
2012,06,21,12,48,604.60
2012,06,21,12,49,615.30
2012,06,21,12,50,586.60
2012,06,21,12,51,585.90
2012,06,21,12,52,572.20
2012,06,21,12,53,582.80
2012,06,21,12,54,575.80
2012,06,21,12,55,560.60
2012,06,21,12,56,547.80
2012,06,21,12,57,545.20
2012,06,21,12,58,539.50
2012,06,21,12,59,523.50
2012,06,21,13,00,512.50
2012,06,21,13,01,510.00
2012,06,21,13,02,514.00
2012,06,21,13,03,517.80
2012,06,21,13,04,525.80
2012,06,21,13,05,525.20
2012,06,21,13,06,525.80
2012,06,21,13,07,502.70
2012,06,21,13,08,520.50
2012,06,21,13,09,523.50
2012,06,21,13,10,515.20
2012,06,21,13,11,502.40
2012,06,21,13,12,492.00
2012,06,21,13,13,485.40
2012,06,21,13,14,476.50
2012,06,21,13,15,484.40
2012,06,21,13,16,494.20
2012,06,21,13,17,520.20
2012,06,21,13,18,546.20
2012,06,21,13,19,547.60
2012,06,21,13,20,565.00
2012,06,21,13,21,576.80
2012,06,21,13,22,588.70
2012,06,21,13,23,595.70
2012,06,21,13,24,601.80
2012,06,21,13,25,623.80
2012,06,21,13,26,641.70
2012,06,21,13,27,642.30
2012,06,21,13,28,589.30
2012,06,21,13,29,663.80
2012,06,21,13,30,672.00
2012,06,21,13,31,672.10
2012,06,21,13,32,696.00
2012,06,21,13,33,694.50
2012,06,21,13,34,633.50
2012,06,21,13,35,613.70
2012,06,21,13,36,605.70
2012,06,21,13,37,610.40
2012,06,21,13,38,610.60
2012,06,21,13,39,589.20
2012,06,21,13,40,557.80
2012,06,21,13,41,558.50
2012,06,21,13,42,582.10
2012,06,21,13,43,569.50
2012,06,21,13,44,557.80
2012,06,21,13,45,549.50
2012,06,21,13,46,584.00
2012,06,21,13,47,603.60
2012,06,21,13,48,579.10
2012,06,21,13,49,576.00
2012,06,21,13,50,564.90
2012,06,21,13,51,534.20
2012,06,21,13,52,503.80
2012,06,21,13,53,538.80
2012,06,21,13,54,529.80
2012,06,21,13,55,510.90
2012,06,21,13,56,506.90
2012,06,21,13,57,522.60
2012,06,21,13,58,490.60
2012,06,21,13,59,492.30
2012,06,21,14,00,518.70
2012,06,21,14,01,529.90
2012,06,21,14,02,529.00
2012,06,21,14,03,553.00
2012,06,21,14,04,544.80
2012,06,21,14,05,568.00
2012,06,21,14,06,568.00
2012,06,21,14,07,569.70
2012,06,21,14,08,559.80
2012,06,21,14,09,539.00
2012,06,21,14,10,533.80
2012,06,21,14,11,559.50
2012,06,21,14,12,566.90
2012,06,21,14,13,568.40
2012,06,21,14,14,557.10
2012,06,21,14,15,548.20
2012,06,21,14,16,562.30
2012,06,21,14,17,524.00
2012,06,21,14,18,536.40
2012,06,21,14,19,507.00
2012,06,21,14,20,470.30
2012,06,21,14,21,470.40
2012,06,21,14,22,485.10
2012,06,21,14,23,497.70
2012,06,21,14,24,471.80
2012,06,21,14,25,488.20
2012,06,21,14,26,468.50
2012,06,21,14,27,469.80
2012,06,21,14,28,506.50
2012,06,21,14,29,524.20
2012,06,21,14,30,546.20
2012,06,21,14,31,571.70
2012,06,21,14,32,581.00
2012,06,21,14,33,584.30
2012,06,21,14,34,593.40
2012,06,21,14,35,588.80
2012,06,21,14,36,590.50
2012,06,21,14,37,575.80
2012,06,21,14,38,537.60
2012,06,21,14,39,539.90
2012,06,21,14,40,551.00
2012,06,21,14,41,565.90
2012,06,21,14,42,575.50
2012,06,21,14,43,573.50
2012,06,21,14,44,570.80
2012,06,21,14,45,578.60
2012,06,21,14,46,588.00
2012,06,21,14,47,592.10
2012,06,21,14,48,607.80
2012,06,21,14,49,632.00
2012,06,21,14,50,638.00
2012,06,21,14,51,623.40
2012,06,21,14,52,579.50
2012,06,21,14,53,572.40
2012,06,21,14,54,534.60
2012,06,21,14,55,506.70
2012,06,21,14,56,485.90
2012,06,21,14,57,516.60
2012,06,21,14,58,578.00
2012,06,21,14,59,604.00
2012,06,21,15,00,659.00
2012,06,21,15,01,566.90
2012,06,21,15,02,537.40
2012,06,21,15,03,557.20
2012,06,21,15,04,633.50
2012,06,21,15,05,601.40
2012,06,21,15,06,633.00
2012,06,21,15,07,507.80
2012,06,21,15,08,489.30
2012,06,21,15,09,523.60
2012,06,21,15,10,649.70
2012,06,21,15,11,640.00
2012,06,21,15,12,622.50
2012,06,21,15,13,622.90
2012,06,21,15,14,614.00
2012,06,21,15,15,586.90
2012,06,21,15,16,478.50
2012,06,21,15,17,437.00
2012,06,21,15,18,409.30
2012,06,21,15,19,399.20
2012,06,21,15,20,400.50
2012,06,21,15,21,418.60
2012,06,21,15,22,443.60
2012,06,21,15,23,458.90
2012,06,21,15,24,444.60
2012,06,21,15,25,426.20
2012,06,21,15,26,412.60
2012,06,21,15,27,402.70
2012,06,21,15,28,396.20
2012,06,21,15,29,386.20
2012,06,21,15,30,377.50
2012,06,21,15,31,373.50
2012,06,21,15,32,373.00
2012,06,21,15,33,374.50
2012,06,21,15,34,385.60
2012,06,21,15,35,390.00
2012,06,21,15,36,386.50
2012,06,21,15,37,389.50
2012,06,21,15,38,396.80
2012,06,21,15,39,403.10
2012,06,21,15,40,407.20
2012,06,21,15,41,407.20
2012,06,21,15,42,406.50
2012,06,21,15,43,418.90
2012,06,21,15,44,406.90
2012,06,21,15,45,407.90
2012,06,21,15,46,421.30
2012,06,21,15,47,413.60
2012,06,21,15,48,420.80
2012,06,21,15,49,436.90
2012,06,21,15,50,446.80
2012,06,21,15,51,456.50
2012,06,21,15,52,462.00
2012,06,21,15,53,467.70
2012,06,21,15,54,480.00
2012,06,21,15,55,515.80
2012,06,21,15,56,528.50
2012,06,21,15,57,541.50
2012,06,21,15,58,546.50
2012,06,21,15,59,545.00
2012,06,21,16,00,440.60
2012,06,21,16,01,408.20
2012,06,21,16,02,412.90
2012,06,21,16,03,418.80
2012,06,21,16,04,398.90
2012,06,21,16,05,369.80
2012,06,21,16,06,351.60
2012,06,21,16,07,345.90
2012,06,21,16,08,341.90
2012,06,21,16,09,337.80
2012,06,21,16,10,332.10
2012,06,21,16,11,324.20
2012,06,21,16,12,316.40
2012,06,21,16,13,308.50
2012,06,21,16,14,303.50
2012,06,21,16,15,301.60
2012,06,21,16,16,301.00
2012,06,21,16,17,301.00
2012,06,21,16,18,299.30
2012,06,21,16,19,296.50
2012,06,21,16,20,292.90
2012,06,21,16,21,287.20
2012,06,21,16,22,278.80
2012,06,21,16,23,269.40
2012,06,21,16,24,258.50
2012,06,21,16,25,246.90
2012,06,21,16,26,238.20
2012,06,21,16,27,227.90
2012,06,21,16,28,215.80
2012,06,21,16,29,202.90
2012,06,21,16,30,191.10
2012,06,21,16,31,179.60
2012,06,21,16,32,173.40
2012,06,21,16,33,172.00
2012,06,21,16,34,174.50
2012,06,21,16,35,179.80
2012,06,21,16,36,184.90
2012,06,21,16,37,188.40
2012,06,21,16,38,190.00
2012,06,21,16,39,190.00
2012,06,21,16,40,188.70
2012,06,21,16,41,185.60
2012,06,21,16,42,180.90
2012,06,21,16,43,175.00
2012,06,21,16,44,170.90
2012,06,21,16,45,168.00
2012,06,21,16,46,165.70
2012,06,21,16,47,163.30
2012,06,21,16,48,162.90
2012,06,21,16,49,162.00
2012,06,21,16,50,162.00
2012,06,21,16,51,162.00
2012,06,21,16,52,162.00
2012,06,21,16,53,162.00
2012,06,21,16,54,160.00
2012,06,21,16,55,159.50
2012,06,21,16,56,157.10
2012,06,21,16,57,154.30
2012,06,21,16,58,151.60
2012,06,21,16,59,148.40
2012,06,21,17,00,146.00
2012,06,21,17,01,146.00
2012,06,21,17,02,146.00
2012,06,21,17,03,147.10
2012,06,21,17,04,148.80
2012,06,21,17,05,152.60